Starlink 31616

operational
NORAD ID: 59270 Int'l Des: 2024-050 Owner: SPXS Country: US Constellation: starlink
LEOCIRCULAR

Über Starlink 31616

Beschreibung wird geladen...

Live-Position

3D-Globus wird geladen...

Nächste Überflüge

Höhenverlauf

Altitude vs Time

uPlot chart will show altitude changes over time

Zweizeiliger Elementsatz

1 59270U 24050S 25352.29572351 -.00004740 00000-0 -14801-3 0 9999
2 59270 53.1592 199.2808 0001172 95.0605 265.0530 15.30202765 98080
Epoch: 18. Dez. 2025 • Age: 17 hours

Aktueller Status

Höhe 477.3 km
Geschwindigkeit 7.63 km/s
Subsatellitenpunkt 35.01°N, 131.41°E
Startdatum 19. März 2024
Alter 1.7 years
Typ internet

Technische Details

Klassifizierung Payload
Masse 730.00 kg
Trockenmasse 700.00 kg
Gesamtmasse 730.00 kg
Länge 0.30 m
Durchmesser 4.10 m
Spannweite 29.00 m
Form Box + pan
Hersteller SPXS
Bus-Typ Starlink V2M
Phasenstatus In Orbit
Besitzer/Staat SPXS/US

Große Konstellationen

Loading constellations...